Location: Blue Sky Observatory
(43.1153°N, 70.9036°W)
Time: 23:57:30
(UTC-04:00)

Daily predictions for brighter satellites

Satellite Brightness Start Highest point End
(mag) Time Altitude Azimuth Time Altitude Azimuth Time Altitude Azimuth
Cosmos 2034 Rocket 4.3 20:38:15 10° N 20:44:32 57° ENE 20:50:44 10° SSE
PSLV R/B 4.3 20:42:05 10° SW 20:45:13 30° SSE 20:48:23 10° E
Cosmos 1939 Rocket 3.4 20:42:01 10° SSE 20:46:00 47° ENE 20:50:00 10° N
COSMOS 2455 3.6 20:41:53 10° SSE 20:47:00 30° ESE 20:52:09 10° NE
Meteor 1-23 Rocket 4.3 20:42:46 10° S 20:48:25 84° E 20:54:11 10° NNE
SPOT 5 3.3 20:46:31 10° SE 20:50:34 37° ENE 20:54:34 10° N
H-2A R/B 2.1 20:46:55 10° SSE 20:51:10 77° ENE 20:55:33 10° N
Cosmos 1603 4.0 20:46:18 10° S 20:51:36 45° ESE 20:56:54 10° NE
Lacrosse 5 rocket 3.0 20:48:22 10° WSW 20:52:00 37° NW 20:55:49 10° NE
ALOS 3.3 20:48:19 10° S 20:52:49 47° W 20:57:20 10° NNW
Meteor 2-9 Rocket 4.3 20:49:21 10° N 20:55:05 87° E 21:00:54 10° S
Cosmos 1626 Rocket 3.8 20:55:18 10° S 20:59:37 53° E 21:03:55 10° NNE
Cosmos 494 Rocket 4.4 20:55:31 10° SSW 21:00:36 69° WNW 21:05:44 10° NNE
Lacrosse 5 4.4 20:56:45 10° WNW 21:00:47 23° NNW 21:04:50 10° NNE
CZ-4 SHROUD 3.7 20:59:03 10° SSE 21:02:05 45° ENE 21:05:08 10° N
Meteor 2-4 Rocket 4.2 20:59:41 10° SSW 21:05:32 71° WNW 21:11:29 10° N
Cosmos 2228 3.2 21:01:32 10° N 21:05:58 78° W 21:10:21 10° S
YAOGAN 6 3.9 21:05:15 11° SE 21:08:09 27° ENE 21:11:20 10° NNE
Terra 4.0 21:06:37 10° E 21:08:28 12° ENE 21:10:18 10° NE
Cosmos 1943 4.1 21:10:29 10° SSE 21:15:17 29° ESE 21:20:07 10° NE
Nimbus 7 Rocket 4.4 21:12:27 10° NNE 21:18:28 81° ESE 21:24:22 10° SSW
Cosmos 1943 Rocket 4.1 21:15:01 10° N 21:18:40 18° NE 21:22:20 10° E
MetOp-A 4.3 21:14:18 11° SSE 21:19:22 60° ENE 21:24:39 10° N
H-2A R/B 3.8 21:17:12 10° ESE 21:20:28 18° ENE 21:23:48 10° NNE
UNK 4.3 21:19:04 10° NNE 21:24:25 59° ESE 21:30:02 10° S
PSLV R/B 3.2 21:22:51 13° S 21:25:32 85° WSW 21:28:41 10° NNW
Aureole 2 Rocket 4.1 21:23:20 10° SW 21:27:00 40° WNW 21:30:22 10° N
Lacrosse 4 Rocket 2.8 21:26:48 17° SE 21:27:45 18° ESE 21:30:35 10° ENE
SPOT 1/Viking Rocket 3.9 21:24:42 15° SE 21:28:51 52° ENE 21:33:51 10° N
SeaSat 1 2.5 21:24:32 14° SSE 21:28:52 89° WSW 21:33:50 10° NNW
CZ-4B R/B 3.6 21:31:35 10° NNE 21:36:38 61° ESE 21:41:45 10° S
Cosmos 1238 4.0 21:35:17 12° S 21:38:05 81° E 21:41:06 10° N
DEBRIS 3.7 21:40:46 10° WNW 21:44:37 26° SW 21:45:48 19° S
Cosmos 1461 4.3 21:42:55 10° NW 21:46:40 30° WSW 21:49:44 13° S
Cosmos 1766 4.5 21:46:01 10° NNE 21:49:31 28° ENE 21:51:01 22° ESE
ATLAS 3B R/B 3.1 21:44:25 10° S 21:51:47 51° ESE 21:59:01 10° NE
Cosmos 1758 Rocket 4.2 21:49:55 24° SE 21:51:55 37° E 21:55:57 10° NNE
ARGOS 3.2 21:51:45 21° SSE 21:55:29 73° ENE 22:00:55 10° N
Cosmos 2369 Rocket 2.2 21:52:31 10° NNW 21:58:13 75° ENE 22:01:40 24° SSE
USA 234 3.3 22:01:10 22° SE 22:05:40 78° SW 22:12:16 10° NW
Atlas Centaur 2 3.7 22:02:13 10° SW 22:09:01 33° S 22:12:43 23° SE
Cosmos 1825 Rocket 3.6 22:05:59 17° S 22:09:25 82° W 22:13:52 10° N
Envisat 4.5 22:06:07 10° SSW 22:10:36 31° W 22:15:08 10° NNW
NOAA 11 4.1 22:08:03 24° SSE 22:11:25 90° ENE 22:16:53 10° NNW
CZ-4C R/B 3.4 22:10:25 32° SSE 22:12:18 77° ENE 22:16:24 10° N
Cosmos 407 Rocket 3.5 22:11:19 20° S 22:14:56 65° ESE 22:20:08 10° NNE
ISS -3.0 22:14:38 10° WSW 22:17:54 67° NNW 22:21:09 10° NE
SL-27 R/B 4.1 22:21:09 20° ENE 22:21:09 20° ENE 22:22:48 10° NE
CZ-4 R/B 4.1 22:15:08 10° N 22:20:08 77° WNW 22:24:19 15° SSW
Cosmos 1805 4.4 22:19:07 10° NNE 22:22:33 28° ENE 22:23:10 27° E
PSLV R/B 3.3 22:19:05 10° WSW 22:22:36 61° S 22:22:59 56° SE
SL-23 DEB 4.4 22:17:10 10° SW 22:22:58 45° SE 22:26:34 10° ENE
SL-08 RB Rocket 3.8 22:21:16 29° S 22:23:32 72° WSW 22:28:04 10° NNW
Cosmos 2263 4.1 22:18:37 10° NNW 22:24:16 87° ENE 22:26:58 32° SSE
COSMOS 2406 4.1 22:27:26 28° ESE 22:28:20 30° ESE 22:33:14 10° NE
USA 238 DEB 4.3 22:26:24 28° SSE 22:29:03 37° ESE 22:35:27 10° NE
Meteor 1-22 Rocket 4.4 22:23:35 10° NNW 22:29:09 73° W 22:32:25 27° S
USA 238 4.3 22:26:35 28° SSE 22:29:10 37° ESE 22:35:32 10° NE
Landsat 7 3.8 22:27:37 34° S 22:29:41 86° W 22:34:29 10° NNW
Cosmos 1953 2.9 22:26:24 10° N 22:30:13 42° ENE 22:30:51 38° ESE
Cosmos 1634 Rocket 4.4 22:24:18 10° NNW 22:30:21 59° W 22:34:40 20° SSW
Spot 4 4.0 22:30:07 36° SE 22:31:48 57° ENE 22:36:30 10° N
COSMOS 2455 3.8 22:26:55 10° SW 22:32:42 48° NW 22:38:32 10° NNE
Cosmos 1954 Rocket 4.1 22:32:27 35° SSE 22:34:27 56° ESE 22:39:38 10° NNE
Terra 1.7 22:43:54 43° S 22:45:29 86° WSW 22:50:18 10° NNW
Cosmos 1346 Rocket 4.1 22:48:51 19° SW 22:51:06 36° WNW 22:54:45 10° N
IGS 5A 3.4 22:51:07 55° S 22:51:59 78° WSW 22:56:10 10° NNW
Cosmos 2279 Rocket 4.2 22:47:34 10° NNW 22:53:46 67° W 22:56:57 30° SSW
Cosmos 1544 4.1 22:52:05 10° N 22:55:27 34° ENE 22:55:27 34° ENE
Cosmos 2084 3.7 22:53:04 10° NNW 22:57:09 60° NE 22:57:57 50° E
Cosmos 1943 4.3 22:53:45 10° SW 22:59:07 43° WNW 23:04:34 10° NNE
H-2A R/B 2.2 22:57:40 38° SSW 22:59:22 60° W 23:04:24 10° NNW
Cosmos 1943 Rocket 2.1 22:57:33 10° NNW 23:03:08 84° WSW 23:04:49 47° SSE
Cosmos 1842 3.8 23:04:01 43° SW 23:04:54 54° W 23:08:46 10° N
Lacrosse 4 Rocket 2.5 23:03:03 14° WSW 23:06:09 40° NW 23:10:03 10° NNE
Cosmos 1932 4.3 23:03:15 28° SSW 23:06:43 79° ESE 23:12:59 10° NE
Cosmos 2221 4.0 23:04:09 10° NNE 23:07:40 23° ENE 23:07:58 23° E
Cosmos 1570 Rocket 4.0 23:02:49 10° NNW 23:08:12 76° ENE 23:09:35 50° SE
Cosmos-2242 3.5 23:06:26 10° NNW 23:10:44 53° W 23:11:38 45° SW
Cosmos 1850 Rocket 4.0 23:09:59 52° SE 23:10:48 59° ESE 23:15:56 10° NNE
Cosmos 1607 4.1 23:12:49 45° SSE 23:14:11 53° ESE 23:20:14 10° NE
Cosmos 1758 3.6 23:11:51 10° NNW 23:15:54 57° W 23:16:19 54° WSW
Cosmos 1656 Rocket 3.8 23:12:36 10° NNW 23:18:17 65° ENE 23:19:52 46° SE
Okean 3 Rocket 3.9 23:23:15 50° E 23:23:15 50° E 23:27:23 10° NNE
Meteor 2-5 Rocket 4.0 23:23:06 47° SE 23:24:15 55° E 23:29:54 10° NNE
Cosmos 1023 Rocket 4.5 23:22:55 46° SSW 23:24:31 82° WNW 23:29:50 10° NNE
IKONOS-2 4.4 23:29:06 80° ESE 23:29:13 81° ENE 23:33:30 10° N
Cosmos 1140 Rocket 3.6 23:28:55 44° SW 23:30:36 74° WNW 23:35:52 10° NNE
Cosmos 1733 3.8 23:28:16 10° N 23:31:40 50° NE 23:31:40 50° NE
Cosmos 2369 Rocket 4.2 23:38:17 10° WNW 23:41:30 16° W 23:43:27 13° WSW
ATLAS 3B R/B 4.0 23:35:25 10° WSW 23:42:43 44° NW 23:49:49 10° NNE
COSMOS 2487 3.4 23:47:20 45° NNE 23:47:20 45° NNE 23:49:57 10° NNE
ALOS 2 3.1 23:46:16 46° ENE 23:46:25 46° ENE 23:50:37 10° N
NOSS 3-2 (A) 3.7 23:47:21 47° SE 23:47:49 48° ESE 23:54:06 10° NE
Cosmos 1408 Rocket 4.2 23:53:16 46° ENE 23:53:16 46° ENE 23:57:13 10° NNE
Cosmos 1470 3.3 23:50:29 10° NNW 23:53:49 52° WNW 23:53:49 52° WNW
ISS -0.6 23:52:12 10° WNW 23:54:47 21° NNW 23:57:22 10° NE
